EW5542 Weather Reports


time (UTC)temp
F
wind
direction
speed
knots
gust
knots
rain 1hr
in
rain 24hr
in
rain mn
in
humidity
%
barometer
mb
20260906123050 71 27 0.0 6.1 0.00 0.00 0.00 88 1014.9
20260906121550 71 23 0.0 4.3 0.00 0.00 0.00 88 1014.7
20260906120045 71 5 0.0 3.5 0.00 0.00 0.00 88 1014.3
20260906114542 71 12 0.0 0.0 0.00 0.00 0.00 88 1014.0
20260906113041 71 30 0.0 1.7 0.00 0.00 0.00 87 1013.8
20260906111537 71 9 0.0 0.0 0.00 0.00 0.00 87 1013.5
20260906110035 72 35 0.0 4.3 0.00 0.00 0.00 87 1013.4
20260906104536 72 355 0.0 3.5 0.00 0.00 0.00 86 1013.3
20260906103032 73 26 0.0 2.6 0.00 0.00 0.00 86 1013.3
20260906101529 73 26 0.0 0.0 0.00 0.00 0.00 86 1013.1
20260906100031 73 14 0.0 0.0 0.00 0.00 0.00 86 1012.9
20260906094525 74 344 0.0 3.5 0.00 0.00 0.00 85 1012.8
20260906093040 74 334 0.0 1.7 0.00 0.00 0.00 85 1012.8
20260906091524 75 5 0.0 0.9 0.00 0.00 0.00 84 1012.7
20260906090020 75 334 0.0 2.6 0.00 0.00 0.00 84 1012.5
20260906084515 76 9 0.0 0.0 0.00 0.00 0.00 84 1012.4
20260906083018 76 24 0.0 1.7 0.00 0.00 0.00 83 1012.3
20260906081521 77 36 0.0 0.0 0.00 0.00 0.00 82 1012.5
20260906080009 78 360 0.0 0.0 0.00 0.00 0.00 81 1012.4
20260906074506 79 355 0.0 0.0 0.00 0.00 0.00 80 1012.4
20260906073008 79 26 0.0 0.0 0.00 0.00 0.00 80 1012.4
20260906071502 80 26 0.0 0.0 0.00 0.00 0.00 80 1012.3
20260906070132 80 64 0.0 0.9 0.00 0.00 0.00 79 1012.2
20260906070001 80 68 0.0 0.9 0.00 0.00 0.00 80 1012.3
20260906064559 80 72 0.0 0.9 0.00 0.00 0.00 80 1012.5
20260906063056 81 51 0.0 0.9 0.00 0.00 0.00 79 1012.5
20260906061616 81 29 0.0 0.0 0.00 0.00 0.00 79 1012.6
20260906060052 82 63 0.0 7.8 0.00 0.00 0.00 78 1012.7
20260906054552 82 46 0.9 7.8 0.00 0.00 0.00 78 1012.5
20260906053052 82 30 0.0 5.2 0.00 0.00 0.00 79 1012.7
20260906051547 83 19 0.0 2.6 0.00 0.00 0.00 78 1012.6
20260906050105 83 54 0.0 4.3 0.00 0.00 0.00 77 1012.6
20260906044544 84 44 0.0 0.9 0.00 0.00 0.00 75 1012.3
20260906043052 85 25 0.0 2.6 0.00 0.00 0.00 74 1011.9
20260906041542 85 59 0.0 0.0 0.00 0.00 0.00 73 1011.9
20260906040057 86 17 0.0 2.6 0.00 0.00 0.00 71 1011.8
20260906034540 86 54 0.0 0.0 0.00 0.00 0.00 70 1011.6
20260906033040 86 34 0.0 1.7 0.00 0.00 0.00 69 1011.4
20260906031540 87 44 0.0 0.9 0.00 0.00 0.00 69 1011.4
20260906030039 87 49 0.0 2.6 0.00 0.00 0.00 68 1011.3
20260906024537 87 46 0.0 2.6 0.00 0.00 0.00 66 1011.2
20260906023054 87 42 0.0 0.0 0.00 0.00 0.00 66 1011.2
20260906021538 87 43 0.0 1.7 0.00 0.00 0.00 64 1010.8
20260906020037 88 20 0.0 0.0 0.00 0.00 0.00 63 1010.7
20260906014549 88 5 0.0 0.0 0.00 0.00 0.00 61 1010.4
20260906013036 89 5 0.0 0.0 0.00 0.00 0.00 61 1010.4
20260906011549 89 5 0.0 0.0 0.00 0.00 0.00 61 1010.3
20260906010036 89 360 0.0 0.0 0.00 0.00 0.00 62 1010.1
20260906004535 89 329 0.0 0.0 0.00 0.00 0.00 62 1010.0
20260906003034 91 342 0.0 0.0 0.00 0.00 0.00 60 1009.9
20260906001534 92 355 0.0 0.0 0.00 0.00 0.00 57 1009.9
20260906000033 93 315 0.0 0.0 0.00 0.00 0.00 55 1010.0
20260905234539 93 333 0.0 2.6 0.00 0.00 0.00 54 1010.0
20260905233032 95 313 0.0 2.6 0.00 0.00 0.00 52 1010.1
20260905231531 95 9 0.0 0.0 0.00 0.00 0.00 48 1009.9
20260905230030 97 328 0.0 5.2 0.00 0.00 0.00 47 1009.7
20260905224535 97 344 0.0 1.7 0.00 0.00 0.00 47 1009.7
20260905223034 96 321 0.0 5.2 0.00 0.00 0.00 49 1009.9
20260905221529 95 312 0.0 7.0 0.00 0.00 0.00 51 1009.9
20260905220029 96 306 1.7 7.8 0.00 0.00 0.00 51 1009.8
20260905214528 96 360 2.6 7.0 0.00 0.00 0.00 49 1009.6
20260905213029 96 339 0.0 4.3 0.00 0.00 0.00 50 1009.8
20260905211527 96 323 0.0 6.1 0.00 0.00 0.00 48 1009.8
20260905210024 98 15 1.7 11.3 0.00 0.00 0.00 44 1009.9
20260905204523 99 336 0.0 8.7 0.00 0.00 0.00 42 1010.0
20260905203022 100 313 7.0 11.3 0.00 0.00 0.00 39 1010.1
20260905201522 99 312 1.7 8.7 0.00 0.00 0.00 45 1010.2
20260905200019 100 265 0.9 7.8 0.00 0.00 0.00 41 1010.3
20260905194514 99 292 0.9 8.7 0.00 0.00 0.00 42 1010.5
20260905193012 99 329 0.0 6.1 0.00 0.00 0.00 42 1010.6
20260905191512 99 5 0.0 7.0 0.00 0.00 0.00 45 1010.9
20260905190021 98 190 0.0 8.7 0.00 0.00 0.00 45 1011.0
20260905184503 98 5 0.0 7.0 0.00 0.00 0.00 46 1011.2
20260905181559 98 217 0.0 4.3 0.00 0.00 0.00 48 1011.5
20260905180051 97 280 0.0 3.5 0.00 0.00 0.00 49 1011.7
20260905174547 96 149 0.0 3.5 0.00 0.00 0.00 52 1011.8
20260905173043 95 268 0.0 4.3 0.00 0.00 0.00 52 1012.0
20260905171541 95 225 0.0 4.3 0.00 0.00 0.00 54 1012.0
20260905170041 94 231 0.0 4.3 0.00 0.00 0.00 56 1012.2
20260905164538 93 182 0.0 5.2 0.00 0.00 0.00 57 1012.6
20260905163033 92 221 0.0 4.3 0.00 0.00 0.00 58 1012.6
20260905160028 91 193 0.0 3.5 0.00 0.00 0.00 60 1012.8
20260905154525 90 173 0.0 3.5 0.00 0.00 0.00 61 1012.9
20260905153029 89 237 0.0 5.2 0.00 0.00 0.00 64 1013.0
20260905151518 87 195 0.0 4.3 0.00 0.00 0.00 66 1012.9
20260905150019 87 234 0.0 3.5 0.00 0.00 0.00 67 1012.9
20260905144513 87 229 2.6 5.2 0.00 0.00 0.00 67 1012.8
20260905143020 86 228 0.0 5.2 0.00 0.00 0.00 69 1012.7
20260905141509 85 200 0.0 2.6 0.00 0.00 0.00 74 1012.9
20260905140003 83 196 0.0 3.5 0.00 0.00 0.00 76 1012.9
20260905134559 82 191 0.0 0.0 0.00 0.00 0.00 78 1013.0
20260905133106 81 188 0.0 4.3 0.00 0.00 0.00 79 1013.0
20260905131608 80 117 0.0 2.6 0.00 0.00 0.00 81 1012.8
20260905130055 79 118 0.0 3.5 0.00 0.00 0.00 83 1012.9
20260905124554 78 137 0.0 0.0 0.00 0.00 0.00 84 1012.7